Calipso

operational
NORAD ID: 29108 Int'l Des: 2006-016 Owner: CNES Country: F
LEOCIRCULARRETROGRADESSO

关于 Calipso

正在加载描述...

实时位置

正在加载3D地球...

即将过境

高度历史

Altitude vs Time

uPlot chart will show altitude changes over time

两行轨道根数

1 29108U 06016B 26063.21471852 .00001733 00000-0 30385-3 0 9996
2 29108 98.4531 75.2868 0000888 99.7562 260.3743 14.69120128 57641
Epoch: Mar 4, 2026 • Age: 19 hours

当前状态

高度 669.1 km
速度 7.53 km/s
星下点 40.06°N, 177.53°E
发射日期 Apr 28, 2006
运行时间 19.8 years
类型 other

技术详情

分类 Payload
质量 587.00 kg
干质量 559.00 kg
总质量 587.00 kg
长度 1.90 m
直径 2.50 m
跨度 9.70 m
形状 Cyl + 2 Pan
制造商 ALCAF/CNES
平台类型 Proteus
阶段状态 In Orbit
所有者/国家 CNES/F

大型星座

Loading constellations...